Probability
0 0 0 0 0 0 0 0 0 0 0 0 0 0 3 3 3 6 3 3 3 3 6 3 3 3 3 6 3 0 0 0 3 0 3 3 3 3 0 0 0 0 0 3
0 0 0 0 0 0 0 0 0 0 0 0 0 0 0 3 3 3 3 3 3 3 3 3 3 3 3 3 3 3 0 0 0 3 3 3 3 3 3 3 0 0 0 0
0 0 0 0 0 0 0 0 0 0 0 0 0 3 0 3 6 6 6 6 6 6 6 6 3 3 3 3 3 3 3 3 6 6 3 3 3 3 3 3 3 3 3 0
0 0 0 0 0 0 0 0 0 0 0 0 0 3 0 3 13 6 6 6 3 0 0 3 3 3 3 3 3 3 3 3 3 3 3 6 6 6 6 6 6 3 3 3
0 0 0 0 0 0 0 0 0 0 0 0 0 0 0 6 6 10 6 3 0 0 0 0 0 3 3 3 3 0 0 0 0 3 6 6 6 6 6 3 3 3 3 3
0 0 0 0 0 0 0 0 0 0 0 0 0 0 3 3 6 10 6 0 0 0 0 0 0 0 3 3 3 0 0 0 0 0 3 3 3 3 3 3 3 3 3 3
0 0 0 0 0 0 0 0 0 0 0 0 0 0 3 3 6 6 6 6 0 0 0 0 0 0 0 3 3 0 0 0 0 3 3 6 6 3 3 3 3 3 3 0
0 0 0 0 0 0 0 0 0 0 0 0 0 3 3 0 0 10 6 6 0 0 0 0 0 0 0 0 0 3 3 0 0 0 0 0 3 3 3 3 3 3 3 0
0 0 0 0 0 0 0 0 0 0 3 3 3 3 0 3 3 6 6 3 3 0 0 0 0 0 0 0 0 0 0 0 0 0 0 0 3 3 3 3 3 3 0 0
0 0 0 0 0 0 0 0 0 0 3 3 3 0 3 3 3 6 6 3 3 0 0 0 0 3 0 0 0 0 0 0 0 0 0 0 0 0 0 0 0 0 0 0
0 0 0 0 0 0 0 0 0 0 3 0 0 0 3 3 3 6 6 6 3 3 0 0 0 0 0 0 0 0 0 0 0 0 0 0 0 0 0 0 0 0 0 0
0 0 0 0 0 0 0 0 0 0 0 0 0 0 3 3 3 3 6 6 3 0 0 0 0 0 0 0 0 0 0 0 0 0 0 0 0 0 0 0 0 0 0 0
0 0 0 0 0 0 0 0 0 0 0 0 0 0 3 3 3 3 6 6 6 3 3 0 3 0 0 0 0 0 0 0 0 0 0 0 0 0 0 0 0 0 0 0
0 0 0 0 0 0 0 0 0 0 0 0 0 0 0 3 3 3 6 6 6 3 3 3 3 0 0 0 0 0 0 0 0 0 0 0 0 0 0 0 0 0 0 0
0 0 0 0 0 0 0 0 0 0 0 0 0 0 3 3 3 3 6 6 3 3 3 0 0 0 0 0 0 0 0 0 0 0 0 0 0 0 0 0 0 0 0 0
0 0 0 0 0 0 0 0 0 0 0 0 0 3 3 3 3 3 6 6 3 3 0 0 0 0 0 0 0 0 0 0 0 0 0 0 0 0 0 0 0 0 0 0
0 0 0 0 0 3 3 3 3 3 3 3 3 6 6 6 6 10 6 3 3 0 0 0 0 0 0 0 0 0 0 0 0 0 0 0 0 0 0 0 0 0 0 0
0 0 0 0 0 0 3 3 3 3 3 3 3 6 6 6 6 6 6 6 0 0 0 0 0 0 0 0 0 0 0 0 0 0 0 0 0 0 0 0 0 0 0 0
0 0 0 0 0 0 3 3 3 3 3 3 3 6 6 3 3 6 3 3 0 0 0 0 0 0 0 0 0 0 0 0 0 0 0 0 0 0 0 0 0 0 0 0
0 0 0 0 0 3 3 3 3 3 3 3 0 0 0 0 0 0 0 3 3 0 0 0 0 0 0 0 0 0 0 0 0 0 0 0 0 0 0 0 0 0 0 0
0 0 0 0 0 3 3 3 3 3 0 0 0 0 0 0 0 0 0 0 0 3 0 0 0 0 0 0 0 0 0 0 0 0 0 0 0 0 0 0 0 0 0 0
0 0 0 0 0 0 3 3 3 3 0 0 0 0 0 0 0 0 0 0 0 0 0 0 0 0 0 0 0 0 0 0 0 0 0 0 0 0 0 0 0 0 0 0
0 0 0 0 0 0 0 0 3 0 0 0 0 0 0 0 0 0 0 0 0 0 0 0 0 0 0 0 0 0 0 0 0 0 3 3 0 0 0 0 0 0 0 0
0 0 0 0 0 0 0 0 0 0 0 0 0 0 0 0 0 0 0 0 0 0 0 0 0 0 0 0 0 0 0 0 0 0 0 0 0 0 0 0 0 0 0 0
0 0 0 0 0 0 0 0 0 0 0 0 0 0 0 0 0 0 0 0 0 0 0 0 0 0 0 0 0 0 0 0 0 0 0 0 0 0 0 0 0 0 0 0
0 0 0 0 0 0 0 0 0 0 0 0 0 0 0 0 0 0 0 0 0 0 0 0 0 0 0 0 0 0 0 0 0 0 0 0 0 0 0 0 0 0 0 0
0 0 0 0 0 0 0 0 0 0 0 0 0 0 0 0 0 0 0 0 0 0 0 0 0 0 0 0 0 0 0 0 0 0 0 0 0 0 0 0 0 0 0 0
Height
5795 5796 5797 5798 5799 5801 5802 5803 5805 5806 5806 5807 5808 5808 5808 5809 5809 5810 5811 5811 5812 5813 5814 5815 5817 5818 5819 5821 5823 5824 5826 5827 5828 5829 5830 5831 5833 5834 5835 5836 5837 5838 5839 5840
5790 5791 5792 5793 5795 5796 5797 5799 5800 5801 5802 5803 5804 5804 5804 5805 5805 5806 5807 5808 5809 5810 5811 5812 5813 5814 5815 5817 5818 5820 5821 5823 5824 5825 5826 5827 5829 5830 5831 5832 5833 5834 5835 5836
5785 5787 5787 5788 5791 5792 5793 5794 5795 5796 5799 5799 5800 5800 5801 5801 5802 5803 5804 5805 5805 5806 5807 5808 5809 5810 5811 5813 5814 5816 5817 5819 5820 5821 5822 5823 5824 5826 5827 5828 5829 5830 5831 5832
5780 5782 5782 5787 5787 5787 5789 5790 5791 5792 5794 5795 5796 5797 5797 5798 5798 5799 5800 5801 5802 5802 5803 5804 5805 5806 5807 5809 5810 5812 5813 5814 5816 5817 5818 5819 5820 5822 5823 5824 5825 5826 5827 5828
5775 5776 5778 5781 5782 5783 5784 5785 5787 5788 5789 5791 5792 5793 5793 5794 5794 5796 5797 5797 5798 5799 5799 5800 5801 5802 5803 5805 5806 5807 5809 5810 5811 5812 5813 5815 5816 5818 5819 5820 5821 5822 5823 5824
5770 5771 5773 5777 5778 5779 5781 5781 5783 5783 5785 5787 5788 5789 5790 5791 5791 5791 5793 5794 5794 5795 5796 5796 5798 5799 5800 5801 5802 5803 5805 5806 5807 5808 5809 5810 5812 5813 5814 5815 5816 5817 5818 5819
5764 5765 5768 5771 5773 5775 5777 5778 5778 5779 5781 5782 5784 5785 5787 5787 5787 5787 5789 5790 5791 5792 5792 5793 5794 5795 5796 5797 5798 5799 5800 5801 5802 5803 5804 5806 5807 5808 5810 5811 5811 5812 5813 5814
5760 5761 5765 5766 5768 5770 5772 5773 5773 5775 5777 5779 5780 5781 5782 5782 5783 5784 5785 5786 5787 5788 5789 5789 5790 5790 5791 5793 5794 5795 5796 5796 5797 5798 5800 5801 5803 5804 5805 5806 5807 5808 5809 5810
5755 5758 5759 5761 5763 5765 5767 5768 5769 5771 5773 5774 5776 5777 5778 5779 5780 5781 5782 5783 5784 5784 5785 5785 5786 5786 5787 5788 5789 5790 5791 5792 5793 5794 5795 5797 5798 5799 5800 5801 5802 5803 5804 5805
5749 5750 5752 5755 5757 5759 5761 5762 5764 5766 5768 5769 5771 5773 5774 5775 5777 5778 5779 5779 5780 5780 5781 5781 5782 5782 5783 5784 5785 5786 5787 5788 5789 5790 5791 5792 5794 5795 5796 5796 5797 5798 5799 5799
5742 5745 5746 5749 5751 5753 5755 5758 5759 5761 5762 5764 5766 5768 5769 5771 5772 5774 5775 5776 5776 5777 5777 5777 5778 5778 5779 5779 5780 5781 5782 5783 5784 5785 5786 5788 5789 5790 5791 5792 5792 5793 5794 5795
5736 5739 5741 5743 5746 5748 5750 5752 5754 5755 5757 5759 5761 5763 5765 5766 5768 5769 5770 5771 5772 5773 5773 5773 5774 5774 5775 5775 5776 5777 5778 5779 5780 5781 5782 5783 5784 5785 5786 5787 5788 5788 5789 5789
5729 5731 5734 5737 5739 5742 5744 5746 5748 5750 5752 5754 5756 5758 5760 5761 5763 5765 5766 5767 5768 5768 5769 5769 5770 5770 5771 5771 5772 5773 5774 5775 5776 5776 5777 5778 5779 5780 5781 5782 5782 5783 5783 5784
5721 5724 5727 5730 5732 5735 5737 5739 5742 5744 5746 5748 5750 5752 5754 5756 5757 5759 5761 5762 5763 5764 5764 5765 5766 5766 5766 5767 5768 5768 5769 5770 5771 5772 5772 5773 5773 5774 5775 5776 5777 5777 5778 5778
5714 5716 5720 5723 5725 5728 5731 5733 5735 5738 5740 5742 5744 5746 5748 5750 5751 5753 5755 5756 5757 5758 5759 5760 5761 5761 5762 5762 5763 5764 5764 5765 5766 5766 5767 5767 5768 5769 5769 5770 5771 5771 5772 5772
5705 5708 5712 5715 5718 5720 5723 5726 5728 5731 5733 5735 5737 5740 5742 5744 5745 5747 5748 5750 5751 5752 5753 5754 5755 5756 5756 5757 5758 5759 5759 5760 5760 5761 5761 5762 5762 5763 5763 5764 5765 5765 5765 5765
5697 5700 5704 5707 5710 5713 5715 5718 5721 5724 5726 5729 5731 5733 5735 5737 5738 5740 5742 5743 5745 5746 5747 5748 5749 5749 5750 5751 5752 5753 5753 5754 5754 5755 5755 5756 5756 5757 5757 5757 5758 5758 5758 5759
5690 5693 5696 5699 5702 5705 5708 5710 5713 5716 5719 5721 5724 5726 5728 5729 5731 5733 5735 5737 5738 5739 5740 5741 5742 5743 5744 5744 5745 5746 5747 5748 5748 5749 5749 5750 5750 5750 5750 5751 5751 5751 5751 5751
5681 5685 5688 5690 5693 5697 5699 5702 5705 5708 5711 5714 5716 5718 5720 5721 5723 5725 5727 5729 5731 5732 5733 5734 5735 5736 5737 5737 5738 5739 5740 5741 5742 5742 5743 5743 5743 5743 5744 5744 5744 5744 5744 5743
5673 5676 5679 5682 5685 5688 5691 5694 5697 5700 5703 5705 5708 5710 5712 5714 5715 5717 5719 5721 5723 5724 5726 5727 5728 5729 5730 5730 5731 5732 5733 5734 5735 5735 5736 5736 5736 5737 5737 5737 5737 5736 5736 5736
5665 5668 5671 5673 5676 5679 5682 5685 5688 5691 5694 5697 5699 5701 5703 5705 5707 5709 5711 5713 5715 5716 5717 5719 5720 5721 5722 5723 5724 5725 5726 5727 5727 5728 5728 5729 5729 5729 5729 5729 5729 5729 5729 5728
5656 5659 5662 5665 5667 5670 5673 5676 5679 5681 5685 5687 5690 5692 5695 5697 5698 5700 5702 5704 5706 5707 5709 5710 5712 5713 5714 5715 5716 5717 5718 5719 5720 5720 5721 5721 5721 5722 5722 5722 5721 5721 5721 5720
5647 5650 5653 5656 5658 5661 5664 5667 5670 5672 5675 5678 5681 5684 5686 5688 5690 5692 5694 5696 5697 5698 5700 5702 5703 5705 5706 5707 5708 5709 5710 5711 5712 5712 5713 5713 5713 5713 5713 5713 5713 5712 5712 5711
5638 5641 5644 5647 5649 5652 5655 5658 5661 5664 5667 5669 5672 5675 5677 5680 5682 5684 5686 5687 5689 5690 5692 5693 5695 5696 5698 5699 5700 5701 5702 5703 5703 5704 5704 5705 5705 5705 5705 5704 5704 5703 5703 5702
5630 5633 5635 5638 5641 5643 5646 5649 5652 5655 5658 5661 5664 5667 5669 5671 5674 5676 5678 5679 5681 5682 5684 5685 5687 5688 5689 5691 5692 5693 5694 5694 5695 5696 5696 5696 5696 5696 5696 5695 5695 5694 5694 5693
5622 5625 5628 5630 5633 5635 5638 5641 5644 5647 5650 5653 5656 5658 5661 5663 5666 5668 5670 5671 5673 5674 5676 5678 5679 5680 5681 5683 5684 5685 5685 5686 5687 5687 5687 5687 5687 5687 5687 5686 5685 5685 5685 5684
5615 5618 5620 5623 5625 5628 5630 5633 5636 5639 5642 5645 5647 5650 5652 5655 5657 5659 5661 5663 5665 5667 5668 5669 5671 5672 5673 5674 5675 5676 5677 5677 5678 5678 5678 5678 5678 5678 5678 5677 5676 5676 5675 5675
Wind_Speed
20 19 19 19 19 17 18 18 19 18 18 18 17 16 16 16 15 15 15 16 16 15 16 16 16 16 15 16 16 16 16 15 15 15 15 14 14 14 13 13 13 13 13 13
20 20 19 20 19 18 17 18 18 19 18 17 16 15 15 15 15 14 14 15 16 16 16 16 16 16 16 16 16 16 16 16 15 15 15 15 15 14 14 14 13 13 13 14
20 19 21 21 19 19 18 18 19 19 17 16 17 16 15 14 15 15 14 14 15 15 16 16 16 16 16 16 17 16 16 16 16 16 16 16 15 15 15 14 14 14 14 14
21 20 21 20 18 19 19 18 18 19 18 17 17 16 15 15 16 16 15 14 14 15 15 16 16 16 17 17 17 17 16 16 16 17 17 16 16 16 15 15 15 15 15 15
22 22 21 19 18 17 18 17 17 18 16 17 17 17 16 16 17 17 16 15 15 14 14 15 15 15 15 16 17 17 17 16 16 17 17 17 16 16 16 16 16 17 15 15
22 22 22 19 18 16 17 18 16 16 16 16 17 17 16 15 16 17 17 16 15 14 14 14 15 15 15 16 16 17 17 16 17 17 17 17 17 17 17 17 18 17 16 15
22 23 21 19 19 17 18 17 16 17 16 15 15 15 15 15 15 16 16 16 15 15 14 15 15 16 16 16 16 16 16 17 17 18 18 18 18 18 18 18 18 17 17 17
23 23 21 19 19 19 18 17 17 17 17 16 15 15 15 14 14 15 15 15 15 15 15 15 15 15 16 17 17 17 17 17 17 17 18 18 18 17 17 18 18 18 17 17
23 23 21 20 20 19 18 18 18 17 17 17 17 16 15 15 14 14 14 14 14 15 15 15 15 15 15 16 17 17 17 17 17 17 17 18 18 17 17 17 17 18 18 18
24 23 23 21 20 20 20 20 20 19 19 18 18 17 16 16 15 14 13 14 14 14 14 15 15 15 15 15 16 17 17 17 17 17 17 17 18 17 17 17 17 18 18 19
26 25 24 22 21 21 22 22 21 21 21 20 18 18 18 17 16 15 15 15 14 13 13 14 15 15 15 16 16 16 17 17 17 17 17 18 18 18 18 18 17 18 18 19
27 26 25 24 22 22 22 22 22 22 22 21 20 20 19 18 17 16 15 15 15 15 14 13 14 15 15 15 16 16 17 17 17 18 18 19 19 19 19 19 19 19 19 19
27 26 26 25 24 23 24 23 22 22 23 22 22 21 20 19 18 17 17 16 16 15 15 14 15 15 16 16 17 17 18 17 17 18 18 19 19 19 19 19 20 20 20 20
29 27 27 26 26 25 25 24 23 23 23 23 22 22 22 21 20 19 18 18 17 17 16 15 15 16 16 16 17 17 18 18 19 19 19 19 19 19 20 21 21 20 20 20
30 30 29 27 27 27 26 25 24 23 24 24 23 23 22 22 22 21 20 20 19 19 18 17 17 17 17 17 17 17 17 18 18 19 19 20 20 21 21 21 21 21 21 22
30 30 29 29 28 28 27 26 25 24 24 24 24 24 24 24 23 23 22 21 21 21 20 20 20 20 20 20 19 19 19 19 19 19 19 20 21 21 22 22 23 23 23 23
30 30 30 30 29 28 27 27 26 26 25 24 25 25 25 25 25 25 24 23 22 22 22 21 21 21 21 21 21 21 21 20 20 20 20 20 20 21 22 22 23 23 23 24
30 29 29 30 29 29 28 28 27 26 26 26 26 26 27 27 26 26 25 25 24 24 23 23 22 22 22 22 22 22 22 21 21 21 21 21 21 21 22 22 22 23 24 25
30 30 30 30 30 29 29 29 28 27 27 27 27 27 28 27 27 27 27 26 25 24 24 24 23 23 23 22 22 23 22 22 22 22 22 22 23 23 23 23 23 24 25 25
31 30 30 30 31 31 30 30 29 28 27 27 27 27 28 28 27 27 28 27 26 25 25 25 24 24 24 24 23 23 23 23 23 23 23 23 23 23 23 23 24 24 25 25
30 31 31 31 31 31 31 30 30 29 28 28 28 28 28 28 28 28 29 29 28 27 26 25 25 24 24 24 24 24 24 24 24 23 23 23 23 23 24 24 24 25 25 26
31 31 32 32 31 31 31 30 29 29 29 28 29 29 29 28 27 27 27 28 28 28 28 27 27 26 26 25 25 25 25 25 25 25 25 25 24 24 25 25 26 26 27 27
31 31 31 31 31 30 30 30 29 29 29 29 29 29 29 28 27 27 26 26 27 27 27 27 27 27 27 26 26 26 26 26 26 26 26 26 26 26 27 27 27 27 27 28
30 31 31 30 31 31 31 30 30 29 29 28 29 29 28 28 27 26 26 26 26 25 26 26 26 26 26 25 26 26 27 27 27 27 27 27 27 28 28 28 28 28 28 28
29 29 29 30 30 31 31 31 30 30 29 29 29 29 28 28 28 27 26 26 26 26 26 25 25 25 25 25 25 25 26 26 27 27 27 28 27 28 28 28 28 28 28 28
28 28 28 28 29 30 30 30 30 30 30 29 29 29 28 28 28 28 27 26 26 26 26 26 26 25 25 25 25 25 25 26 27 27 27 27 27 28 28 28 28 28 29 29
28 28 29 29 29 30 30 29 29 30 30 30 29 29 29 29 29 29 28 27 26 26 26 25 26 26 26 26 26 26 26 27 27 27 27 28 28 28 28 28 28 28 29 30
Wind_Direction
253 252 251 255 255 256 257 255 253 254 258 264 267 267 268 267 263 258 256 256 257 253 251 250 251 252 250 248 248 250 249 249 249 251 253 254 253 254 255 256 258 258 258 258
254 253 255 258 256 255 259 257 254 253 256 261 262 262 265 265 261 257 256 258 258 257 253 251 251 251 250 248 249 249 248 249 249 251 254 256 253 252 254 257 258 257 259 261
254 254 255 257 257 258 260 260 255 252 251 255 254 257 259 260 260 259 258 258 260 258 254 254 254 252 251 249 248 247 248 249 251 252 253 254 252 251 254 257 259 257 258 259
252 253 255 258 259 260 260 257 255 255 252 251 253 255 256 258 258 255 257 258 258 256 254 254 254 253 250 246 245 247 248 250 252 251 250 250 250 253 255 256 256 257 259 258
251 250 255 256 257 261 261 258 255 256 254 248 251 252 252 255 256 256 257 258 258 260 259 257 254 254 251 246 247 249 250 253 252 250 248 247 249 253 256 256 258 258 258 257
250 250 253 256 258 261 259 260 259 255 251 250 252 251 252 256 258 256 255 256 258 260 259 257 253 251 251 249 251 253 255 255 254 253 249 246 248 252 254 256 259 256 256 258
251 250 252 254 256 256 257 260 258 252 247 248 252 253 256 259 258 255 253 253 255 258 258 257 256 253 252 252 253 255 257 258 257 254 250 249 251 254 255 257 258 256 255 257
251 251 250 253 255 255 255 255 253 251 246 246 250 253 254 257 258 255 253 251 255 257 258 260 261 257 255 254 255 257 259 259 258 254 252 252 255 257 258 259 257 256 255 255
250 251 252 250 252 253 251 252 251 250 248 246 248 251 252 253 256 254 251 253 256 258 259 260 261 258 258 258 256 256 256 257 255 255 254 254 255 257 261 260 259 259 257 257
245 248 251 249 248 247 247 248 250 248 247 247 247 248 249 250 253 253 252 255 257 259 261 259 258 256 256 257 255 253 256 258 258 258 256 255 254 258 261 263 263 262 262 261
242 244 247 248 247 246 248 247 248 247 248 249 246 246 247 248 251 253 254 257 258 259 264 263 259 259 257 256 256 257 258 259 260 258 256 258 257 259 261 263 265 264 264 264
242 242 243 246 247 245 245 247 247 247 247 247 246 247 249 250 250 252 254 256 258 259 261 264 264 260 257 257 258 259 259 260 261 261 259 259 261 261 262 263 265 266 266 266
242 241 242 242 242 242 243 246 249 247 247 247 246 247 248 250 251 252 254 254 256 258 260 262 263 262 260 259 261 262 261 262 263 263 263 263 262 260 260 262 265 266 266 267
241 241 240 239 240 242 244 246 247 247 246 246 246 246 248 249 252 252 252 253 255 257 259 261 262 262 259 260 261 262 262 262 263 264 266 266 264 262 261 262 265 267 268 269
241 241 241 242 242 243 245 245 245 246 246 246 246 246 248 249 250 251 252 252 254 256 257 259 261 261 260 260 262 264 264 265 266 265 266 266 266 265 265 265 267 267 268 270
241 241 241 242 243 243 244 245 245 244 244 245 246 246 249 250 250 251 253 254 254 255 257 259 260 261 261 261 263 265 267 268 268 267 266 267 267 267 267 267 267 268 269 271
241 240 240 241 242 242 242 243 243 243 244 246 248 248 250 251 250 251 253 254 255 256 257 259 260 260 262 262 262 264 267 268 268 268 267 268 269 269 268 268 269 269 270 272
241 241 241 241 243 242 241 242 242 242 243 245 249 250 250 251 252 251 252 254 256 257 257 259 260 260 261 262 262 263 264 265 265 266 268 270 272 272 271 270 271 272 272 273
241 242 242 243 242 241 241 241 241 242 244 247 249 251 251 251 252 251 252 253 256 256 257 259 259 260 262 264 263 263 264 264 264 265 267 270 271 272 271 271 273 274 274 275
242 243 243 244 243 243 244 243 243 243 246 248 250 251 252 253 254 253 253 254 256 256 257 257 258 260 261 262 262 262 263 264 264 265 266 268 270 271 272 272 274 275 276 276
243 245 244 244 244 244 245 245 244 245 248 250 250 251 252 254 255 255 255 256 256 256 256 257 257 258 260 261 262 262 262 263 263 265 266 268 270 272 273 273 274 276 277 278
243 243 243 244 244 245 245 244 244 246 248 249 250 251 253 254 256 256 256 256 256 256 255 255 256 258 260 262 263 263 262 262 263 265 267 268 270 272 274 276 277 277 277 279
243 243 243 244 244 245 245 244 246 247 247 248 249 250 252 254 255 256 256 256 256 255 255 255 256 257 260 262 263 262 262 262 264 266 268 270 272 273 275 277 278 278 278 280
243 243 243 244 244 244 243 244 245 246 247 248 248 248 250 252 253 255 255 256 256 256 255 255 256 257 259 261 262 262 262 264 265 267 270 272 273 274 275 277 278 279 281 282
242 242 243 244 244 244 244 244 244 246 247 247 247 247 248 250 252 253 254 255 256 256 255 255 256 258 259 260 262 263 264 265 266 268 271 274 275 276 276 278 280 281 281 282
241 242 243 242 242 242 244 244 245 246 247 247 247 247 248 250 251 251 253 255 256 257 257 256 256 258 260 261 262 263 265 266 267 269 272 274 276 278 278 280 280 279 280 281
242 243 244 243 242 243 244 245 245 245 245 246 247 248 248 250 250 251 252 253 255 256 257 258 258 259 260 261 262 264 267 268 269 270 271 274 275 276 277 278 279 279 280 282